TimeMDT,TemperatureF,Dew PointF,Humidity,Sea Level PressureIn,VisibilityMPH,Wind Direction,Wind SpeedMPH,Gust SpeedMPH,PrecipitationIn,Events,Conditions,WindDirDegrees,DateUTC
12:53 AM,64.0,57.9,80,29.83,10.0,South,17.3,-,N/A,,Unknown,170,2013-07-21 06:53:00
1:53 AM,62.1,57.0,84,29.83,10.0,South,11.5,-,N/A,,Unknown,170,2013-07-21 07:53:00
2:53 AM,60.1,55.0,83,29.82,10.0,South,6.9,-,N/A,,Unknown,180,2013-07-21 08:53:00
3:53 AM,55.9,53.1,90,29.85,10.0,ENE,8.1,-,N/A,,Unknown,70,2013-07-21 09:53:00
4:53 AM,57.9,55.0,90,29.90,10.0,East,13.8,-,N/A,,Unknown,100,2013-07-21 10:53:00
5:53 AM,57.9,55.0,90,29.90,10.0,SE,15.0,-,N/A,,Unknown,130,2013-07-21 11:53:00
6:53 AM,61.0,54.0,78,29.87,10.0,SE,12.7,-,N/A,,Unknown,130,2013-07-21 12:53:00
7:53 AM,68.0,53.1,59,29.88,10.0,SE,10.4,-,N/A,,Unknown,140,2013-07-21 13:53:00
8:53 AM,72.0,50.0,46,29.89,10.0,SE,13.8,20.7,N/A,,Clear,140,2013-07-21 14:53:00
9:53 AM,77.0,48.0,36,29.87,10.0,SSE,21.9,28.8,N/A,,Clear,150,2013-07-21 15:53:00
10:53 AM,81.0,48.0,31,29.83,8.0,SSE,25.3,33.4,N/A,,Clear,160,2013-07-21 16:53:00
11:53 AM,84.0,48.9,29,29.80,9.0,South,26.5,34.5,N/A,,Clear,170,2013-07-21 17:53:00
12:53 PM,86.0,55.0,35,29.80,10.0,South,20.7,28.8,N/A,,Clear,180,2013-07-21 18:53:00
1:53 PM,88.0,55.9,34,29.77,10.0,SW,15.0,23.0,N/A,,Clear,220,2013-07-21 19:53:00
2:53 PM,90.0,57.0,33,29.76,10.0,South,13.8,24.2,N/A,,Clear,190,2013-07-21 20:53:00
3:53 PM,91.0,55.0,29,29.75,10.0,SSW,10.4,-,N/A,,Clear,200,2013-07-21 21:53:00
4:53 PM,91.0,55.0,29,29.70,10.0,SSW,13.8,21.9,N/A,,Clear,200,2013-07-21 22:53:00
5:53 PM,90.0,55.9,31,29.69,10.0,SSE,15.0,23.0,N/A,,Clear,160,2013-07-21 23:53:00
6:53 PM,84.9,57.9,40,29.69,10.0,SSE,12.7,-,N/A,,Clear,160,2013-07-22 00:53:00
7:53 PM,82.0,59.0,45,29.70,10.0,SSE,9.2,-,N/A,,Clear,160,2013-07-22 01:53:00
8:53 PM,75.9,60.1,58,29.73,10.0,SSE,6.9,-,N/A,,Clear,150,2013-07-22 02:53:00
9:44 PM,77.0,60.8,57,29.92,10.0,NNE,9.2,-,N/A,Thunderstorm,Scattered Clouds,20,2013-07-22 03:44:00
9:53 PM,79.0,55.0,44,29.80,10.0,North,21.9,31.1,N/A,Thunderstorm,Scattered Clouds,350,2013-07-22 03:53:00
10:53 PM,72.0,50.0,46,29.76,10.0,SSW,6.9,-,0.00,,Scattered Clouds,200,2013-07-22 04:53:00
11:53 PM,70.0,50.0,49,29.76,10.0,South,10.4,-,N/A,,Partly Cloudy,190,2013-07-22 05:53:00